星链-4798 (STARLINK-4798 )

导读

STARLINK-4798是美国SpaceX公司星链(Starlink)星座中的一颗卫星,于2022年9月19日发射升空,运行于近地轨道。星链星座旨在为全球尤其基础设施匮乏地区提供高速低延迟宽带互联网服务,STARLINK-4798作为组网卫星之一,助力星座覆盖扩展与服务能力提升,推动全球互联网络建设。

基本信息
目录编号:
53858
目录名称:
STARLINK-4798
国际标识:
2022-114AS
轨道中心:
EARTH
卫星名称:
星链-4798
卫星全名:
星链-4798 (STARLINK-4798 )
卫星状态:
在轨 (已飞行1365 天)
发射日期:
2022-09-19 UTC
国别 :
美国 (US)
星等 :
--
轨道信息
数据来源 国际轨道数据
星历时间: 2026-06-15T04:00:05+0800
4小时前
查看轨道信息
半长轴: 6679.649km
偏心率: 0.0000831
轨道倾角: 53.214°
近地点辐角 165.423°
升交点赤经 182.605°
平近点角 275.148°
近地点: 300.956km
远地点: 302.068km
周期: 90.550分钟
每日圈数: 15.902753
详细信息
固有亮度:
5
最大亮度:
2.5
卫星平台:
Starlink v1.5
覆盖范围:
全球
运营商:
太空探索技术公司
运营商所在国:
美国
制造商(研发单位):
太空探索技术公司
制造商所在国:
美国
使用方式:
暂无
卫星简介
星链(Starlink)计划是由太空探索技术公司(SpaceX)提出的一个巨型低轨卫星互联网星座项目,计划在2019年至2024年间在太空搭建由约1.2万颗卫星组成的“星链”网络,其中1584颗将部署在地球上空550千米处的近地轨道,并从2020年开始工作。该卫星仍在工作。
2D轨道图
3D轨道图
轨道高度分析图
轨道倾角分析图
轨道综合分析图
查看轨道综合分析图